TAM3397 SBFI-SBGR

Flight info

Callsign TAM3397
Flight time 1h 17m
Altitude 37000
Route KAMIL UZ28 XONUG UZ121 BUXUK
Aircraft A321/M-SDE3FGHIRWY/LB1

Departure

Time 2026-04-26 02:08
Airport Cataratas International Airport (SBFI)

Arrival

Time 2026-04-26 03:26
Airport São Paulo/Guarulhos–Governor André Franco Montoro International Airport (SBGR)
Time Latitude Longitude Altitude Speed Heading
2026-04-26 01:12 -25.59696 -54.48852 799 ft 0 kts 221°
2026-04-26 01:55 -25.59690 -54.48846 771 ft 2 kts 217°
2026-04-26 01:55 -25.59676 -54.48834 798 ft 2 kts 219°
2026-04-26 01:55 -25.59663 -54.48823 798 ft 2 kts 206°
2026-04-26 01:55 -25.59648 -54.48820 798 ft 2 kts 132°
2026-04-26 01:56 -25.59642 -54.48828 798 ft 0 kts 133°
2026-04-26 02:01 -25.59664 -54.48803 798 ft 12 kts 133°
2026-04-26 02:01 -25.59701 -54.48758 798 ft 2 kts 131°
2026-04-26 02:02 -25.59714 -54.48741 798 ft 2 kts 129°
2026-04-26 02:02 -25.59757 -54.48682 798 ft 17 kts 129°
2026-04-26 02:02 -25.59816 -54.48605 798 ft 11 kts 130°
2026-04-26 02:02 -25.59846 -54.48533 797 ft 6 kts 73°
2026-04-26 02:03 -25.59842 -54.48529 797 ft 0 kts 47°
2026-04-26 02:03 -25.59833 -54.48519 797 ft 6 kts 47°
2026-04-26 02:04 -25.59806 -54.48484 795 ft 9 kts 57°
2026-04-26 02:04 -25.59821 -54.48429 796 ft 7 kts 126°
2026-04-26 02:04 -25.59844 -54.48396 797 ft 5 kts 128°
2026-04-26 02:04 -25.59891 -54.48333 797 ft 14 kts 131°
2026-04-26 02:05 -25.59962 -54.48242 797 ft 13 kts 130°
2026-04-26 02:05 -25.60037 -54.48148 800 ft 18 kts 131°
2026-04-26 02:05 -25.60115 -54.48052 801 ft 17 kts 133°
2026-04-26 02:05 -25.60197 -54.47977 800 ft 9 kts 141°
2026-04-26 02:06 -25.60215 -54.47919 800 ft 1 kts 39°
2026-04-26 02:06 -25.60206 -54.47930 800 ft 1 kts 307°
2026-04-26 02:07 -25.60206 -54.47931 800 ft 1 kts 308°
2026-04-26 02:07 -25.60204 -54.47933 800 ft 9 kts 308°
2026-04-26 02:07 -25.59971 -54.48243 797 ft 89 kts 313°
2026-04-26 02:07 -25.59412 -54.48934 801 ft 142 kts 311°
2026-04-26 02:08 -25.58677 -54.49879 835 ft 178 kts 310°
2026-04-26 02:08 -25.57887 -54.50971 1321 ft 184 kts 308°
2026-04-26 02:08 -25.57082 -54.52122 1798 ft 195 kts 308°
2026-04-26 02:08 -25.56231 -54.53313 2300 ft 199 kts 310°
2026-04-26 02:09 -25.55291 -54.54507 2609 ft 212 kts 313°
2026-04-26 02:09 -25.54266 -54.55748 3066 ft 218 kts 313°
2026-04-26 02:09 -25.53214 -54.56975 3711 ft 219 kts 321°
2026-04-26 02:09 -25.51804 -54.57545 4459 ft 220 kts
2026-04-26 02:10 -25.50364 -54.56943 5041 ft 236 kts 36°
2026-04-26 02:10 -25.49415 -54.55340 5288 ft 267 kts 66°
2026-04-26 02:10 -25.48824 -54.53254 5651 ft 285 kts 65°
2026-04-26 02:10 -25.47675 -54.51505 6195 ft 283 kts 37°
2026-04-26 02:11 -25.46229 -54.50126 6801 ft 287 kts 36°
2026-04-26 02:11 -25.44678 -54.48703 7450 ft 290 kts 34°
2026-04-26 02:11 -25.43094 -54.47284 8100 ft 294 kts 34°
2026-04-26 02:11 -25.41525 -54.45880 8711 ft 299 kts 34°
2026-04-26 02:12 -25.39909 -54.44429 9341 ft 302 kts 34°
2026-04-26 02:12 -25.38222 -54.42914 9984 ft 306 kts 34°
2026-04-26 02:12 -25.36559 -54.41426 10223 ft 325 kts 34°
2026-04-26 02:12 -25.34738 -54.39796 10335 ft 346 kts 37°
2026-04-26 02:13 -25.33158 -54.37669 10708 ft 365 kts 59°
2026-04-26 02:13 -25.32327 -54.34981 11257 ft 375 kts 80°
2026-04-26 02:13 -25.32351 -54.32046 11870 ft 381 kts 101°
2026-04-26 02:13 -25.33213 -54.29325 12467 ft 383 kts 119°
2026-04-26 02:14 -25.34492 -54.26680 13097 ft 386 kts 120°
2026-04-26 02:14 -25.35758 -54.24083 13714 ft 390 kts 120°
2026-04-26 02:14 -25.37052 -54.21433 14264 ft 394 kts 120°
2026-04-26 02:14 -25.38344 -54.18789 14814 ft 397 kts 120°
2026-04-26 02:15 -25.39672 -54.16065 15346 ft 401 kts 120°
2026-04-26 02:15 -25.41012 -54.13311 15886 ft 405 kts 120°
2026-04-26 02:15 -25.42355 -54.10544 16422 ft 409 kts 120°
2026-04-26 02:15 -25.43710 -54.07745 16943 ft 413 kts 120°
2026-04-26 02:16 -25.45074 -54.04928 17462 ft 417 kts 120°
2026-04-26 02:16 -25.46450 -54.02087 17968 ft 421 kts 120°
2026-04-26 02:16 -25.47839 -53.99216 18441 ft 425 kts 120°
2026-04-26 02:16 -25.49240 -53.96321 18874 ft 428 kts 121°
2026-04-26 02:17 -25.50660 -53.93385 19276 ft 432 kts 121°
2026-04-26 02:17 -25.52044 -53.90519 19654 ft 436 kts 121°
2026-04-26 02:17 -25.53509 -53.87480 20069 ft 440 kts 121°
2026-04-26 02:17 -25.54889 -53.84616 20439 ft 443 kts 121°
2026-04-26 02:18 -25.56279 -53.81568 20809 ft 448 kts 115°
2026-04-26 02:18 -25.57266 -53.78249 21181 ft 454 kts 104°
2026-04-26 02:18 -25.57723 -53.74778 21552 ft 458 kts 93°
2026-04-26 02:18 -25.57648 -53.71249 21919 ft 461 kts 82°
2026-04-26 02:19 -25.57082 -53.67735 22278 ft 463 kts 76°
2026-04-26 02:19 -25.56424 -53.64239 22645 ft 466 kts 76°
2026-04-26 02:19 -25.55751 -53.60650 23002 ft 470 kts 76°
2026-04-26 02:19 -25.55314 -53.58304 23231 ft 472 kts 77°
2026-04-26 02:20 -25.54652 -53.54747 23563 ft 476 kts 77°
2026-04-26 02:20 -25.53981 -53.51139 23844 ft 478 kts 76°
2026-04-26 02:20 -25.53312 -53.47551 24127 ft 481 kts 76°
2026-04-26 02:20 -25.52633 -53.43917 24427 ft 483 kts 76°
2026-04-26 02:21 -25.51945 -53.40238 24739 ft 485 kts 76°
2026-04-26 02:21 -25.51256 -53.36563 25037 ft 487 kts 76°
2026-04-26 02:21 -25.50587 -53.33007 25331 ft 489 kts 76°
2026-04-26 02:21 -25.49879 -53.29253 25638 ft 491 kts 76°
2026-04-26 02:22 -25.49180 -53.25556 25945 ft 494 kts 76°
2026-04-26 02:22 -25.48464 -53.21789 26259 ft 496 kts 76°
2026-04-26 02:22 -25.47913 -53.18900 26487 ft 497 kts 76°
2026-04-26 02:22 -25.47442 -53.16432 26686 ft 499 kts 76°
2026-04-26 02:23 -25.46727 -53.12694 27003 ft 501 kts 76°
2026-04-26 02:23 -25.45996 -53.08863 27298 ft 503 kts 76°
2026-04-26 02:23 -25.45270 -53.05042 27610 ft 505 kts 76°
2026-04-26 02:23 -25.44550 -53.01262 27905 ft 507 kts 76°
2026-04-26 02:24 -25.43818 -52.97440 28217 ft 509 kts 75°
2026-04-26 02:24 -25.43083 -52.93611 28515 ft 511 kts 75°
2026-04-26 02:24 -25.42348 -52.89776 28809 ft 513 kts 75°
2026-04-26 02:24 -25.41592 -52.85825 29090 ft 515 kts 75°
2026-04-26 02:25 -25.40850 -52.81989 29367 ft 517 kts 75°
2026-04-26 02:25 -25.40086 -52.78054 29641 ft 519 kts 75°
2026-04-26 02:25 -25.39335 -52.74182 29893 ft 521 kts 75°
2026-04-26 02:25 -25.38575 -52.70265 30128 ft 523 kts 75°
2026-04-26 02:26 -25.37804 -52.66279 30369 ft 524 kts 75°
2026-04-26 02:26 -25.37039 -52.62322 30607 ft 526 kts 75°
2026-04-26 02:26 -25.36274 -52.58366 30849 ft 528 kts 75°
2026-04-26 02:26 -25.35517 -52.54470 31100 ft 529 kts 75°
2026-04-26 02:27 -25.34728 -52.50426 31446 ft 528 kts 75°
2026-04-26 02:27 -25.33964 -52.46518 31803 ft 527 kts 75°
2026-04-26 02:27 -25.33196 -52.42581 32166 ft 526 kts 75°
2026-04-26 02:27 -25.32423 -52.38634 32519 ft 526 kts 75°
2026-04-26 02:28 -25.31654 -52.34713 32862 ft 525 kts 74°
2026-04-26 02:28 -25.30873 -52.30731 33232 ft 524 kts 74°
2026-04-26 02:28 -25.30097 -52.26798 33589 ft 524 kts 74°
2026-04-26 02:28 -25.29322 -52.22873 33923 ft 523 kts 74°
2026-04-26 02:29 -25.28553 -52.19006 34230 ft 523 kts 74°
2026-04-26 02:29 -25.27767 -52.15066 34533 ft 522 kts 74°
2026-04-26 02:29 -25.26976 -52.11087 34840 ft 522 kts 74°
2026-04-26 02:29 -25.26197 -52.07166 35128 ft 521 kts 74°
2026-04-26 02:30 -25.25417 -52.03241 35434 ft 520 kts 74°
2026-04-26 02:30 -25.24641 -51.99345 35724 ft 519 kts 74°
2026-04-26 02:30 -25.23866 -51.95455 36012 ft 519 kts 74°
2026-04-26 02:30 -25.23097 -51.91608 36302 ft 518 kts 74°
2026-04-26 02:31 -25.22320 -51.87727 36574 ft 517 kts 74°
2026-04-26 02:31 -25.21532 -51.83814 36859 ft 516 kts 74°
2026-04-26 02:31 -25.20750 -51.79926 37000 ft 516 kts 75°
2026-04-26 02:32 -25.19214 -51.72279 37016 ft 512 kts 74°
2026-04-26 02:32 -25.17672 -51.64613 37021 ft 512 kts 74°
2026-04-26 02:33 -25.16107 -51.56881 37025 ft 511 kts 74°
2026-04-26 02:33 -25.14557 -51.49274 37021 ft 511 kts 74°
2026-04-26 02:34 -25.12977 -51.41574 37025 ft 511 kts 74°
2026-04-26 02:34 -25.11397 -51.33867 37026 ft 512 kts 74°
2026-04-26 02:35 -25.09844 -51.26264 37030 ft 512 kts 74°
2026-04-26 02:35 -25.08254 -51.18523 37022 ft 512 kts 74°
2026-04-26 02:36 -25.06666 -51.10854 37026 ft 513 kts 74°
2026-04-26 02:36 -25.05075 -51.03123 37029 ft 513 kts 74°
2026-04-26 02:37 -25.03492 -50.95466 37023 ft 512 kts 74°
2026-04-26 02:37 -25.01891 -50.87821 37024 ft 512 kts 74°
2026-04-26 02:38 -25.00273 -50.80143 37026 ft 512 kts 73°
2026-04-26 02:38 -24.98659 -50.72505 37024 ft 512 kts 73°
2026-04-26 02:39 -24.97050 -50.64865 37027 ft 512 kts 74°
2026-04-26 02:39 -24.95434 -50.57147 37026 ft 512 kts 74°
2026-04-26 02:40 -24.93810 -50.49459 37030 ft 512 kts 73°
2026-04-26 02:40 -24.92185 -50.41824 37031 ft 512 kts 74°
2026-04-26 02:41 -24.90835 -50.35479 37030 ft 512 kts 74°
2026-04-26 02:41 -24.88943 -50.26585 37039 ft 512 kts 74°
2026-04-26 02:42 -24.87582 -50.20214 37037 ft 511 kts 73°
2026-04-26 02:42 -24.85942 -50.12589 37041 ft 511 kts 73°
2026-04-26 02:43 -24.83471 -50.01112 37040 ft 511 kts 74°
2026-04-26 02:43 -24.81809 -49.93395 37041 ft 511 kts 74°
2026-04-26 02:44 -24.80156 -49.85781 37042 ft 511 kts 74°
2026-04-26 02:44 -24.78414 -49.78198 37043 ft 510 kts 71°
2026-04-26 02:45 -24.76424 -49.70701 37038 ft 509 kts 70°
2026-04-26 02:45 -24.74387 -49.63282 37036 ft 509 kts 70°
2026-04-26 02:46 -24.72375 -49.55715 37034 ft 509 kts 71°
2026-04-26 02:46 -24.70423 -49.48221 37031 ft 509 kts 71°
2026-04-26 02:47 -24.68464 -49.40728 37028 ft 509 kts 71°
2026-04-26 02:47 -24.66507 -49.33292 37026 ft 509 kts 71°
2026-04-26 02:48 -24.64549 -49.25801 37024 ft 509 kts 71°
2026-04-26 02:48 -24.62592 -49.18308 37023 ft 509 kts 71°
2026-04-26 02:49 -24.60612 -49.10835 37024 ft 509 kts 71°
2026-04-26 02:49 -24.58596 -49.03385 37022 ft 509 kts 71°
2026-04-26 02:50 -24.56572 -48.95944 37018 ft 508 kts 71°
2026-04-26 02:50 -24.54549 -48.88498 37018 ft 509 kts 71°
2026-04-26 02:51 -24.52530 -48.81050 37020 ft 509 kts 71°
2026-04-26 02:51 -24.50518 -48.73611 37017 ft 508 kts 71°
2026-04-26 02:52 -24.48526 -48.66223 37021 ft 508 kts 71°
2026-04-26 02:52 -24.46503 -48.58731 37019 ft 508 kts 71°
2026-04-26 02:53 -24.44491 -48.51314 37016 ft 508 kts 71°
2026-04-26 02:53 -24.42484 -48.43939 37010 ft 507 kts 71°
2026-04-26 02:54 -24.40462 -48.36522 37009 ft 507 kts 71°
2026-04-26 02:54 -24.38417 -48.29052 37011 ft 507 kts 71°
2026-04-26 02:55 -24.36183 -48.21782 37009 ft 502 kts 60°
2026-04-26 02:55 -24.34418 -48.18461 37004 ft 496 kts 49°
2026-04-26 02:55 -24.32236 -48.15586 36996 ft 488 kts 39°
2026-04-26 02:56 -24.26885 -48.11237 36999 ft 472 kts 21°
2026-04-26 02:56 -24.21045 -48.07801 36995 ft 473 kts 21°
2026-04-26 02:57 -24.15241 -48.04381 36993 ft 474 kts 21°
2026-04-26 02:57 -24.09465 -48.00985 37005 ft 474 kts 22°
2026-04-26 02:58 -24.03595 -47.97543 36998 ft 475 kts 22°
2026-04-26 02:58 -23.97744 -47.94103 36526 ft 472 kts 22°
2026-04-26 02:59 -23.94840 -47.92397 35882 ft 473 kts 22°
2026-04-26 02:59 -23.91939 -47.90694 35194 ft 476 kts 22°
2026-04-26 02:59 -23.89004 -47.88973 34485 ft 479 kts 22°
2026-04-26 02:59 -23.86061 -47.87247 33730 ft 483 kts 22°
2026-04-26 03:00 -23.83089 -47.85508 33039 ft 484 kts 22°
2026-04-26 03:00 -23.80141 -47.83781 32560 ft 479 kts 22°
2026-04-26 03:00 -23.77211 -47.82058 32084 ft 476 kts 23°
2026-04-26 03:00 -23.74532 -47.79962 31624 ft 482 kts 39°
2026-04-26 03:01 -23.72209 -47.77379 31144 ft 480 kts 41°
2026-04-26 03:01 -23.69834 -47.74713 30692 ft 475 kts 40°
2026-04-26 03:01 -23.67554 -47.72213 30250 ft 471 kts 39°
2026-04-26 03:01 -23.65178 -47.69675 29746 ft 466 kts 39°
2026-04-26 03:02 -23.62864 -47.67250 29386 ft 458 kts 38°
2026-04-26 03:02 -23.60607 -47.64905 29236 ft 446 kts 38°
2026-04-26 03:02 -23.58404 -47.62615 29051 ft 435 kts 38°
2026-04-26 03:02 -23.56268 -47.60390 28707 ft 428 kts 38°
2026-04-26 03:03 -23.54135 -47.58163 28308 ft 424 kts 39°
2026-04-26 03:03 -23.50453 -47.54309 27543 ft 418 kts 39°
2026-04-26 03:03 -23.48361 -47.52118 27124 ft 414 kts 39°
2026-04-26 03:04 -23.46312 -47.49970 26706 ft 411 kts 39°
2026-04-26 03:04 -23.44246 -47.47804 26297 ft 408 kts 39°
2026-04-26 03:04 -23.42204 -47.45666 25893 ft 405 kts 39°
2026-04-26 03:04 -23.40190 -47.43560 25499 ft 402 kts 39°
2026-04-26 03:05 -23.34313 -47.37415 24370 ft 393 kts 40°
2026-04-26 03:05 -23.32376 -47.35390 24014 ft 390 kts 40°
2026-04-26 03:06 -23.30413 -47.33339 23650 ft 388 kts 40°
2026-04-26 03:06 -23.28460 -47.31299 23243 ft 385 kts 40°
2026-04-26 03:06 -23.26572 -47.29325 22824 ft 382 kts 40°
2026-04-26 03:06 -23.24627 -47.27294 22393 ft 379 kts 40°
2026-04-26 03:07 -23.22738 -47.25325 21994 ft 377 kts 40°
2026-04-26 03:07 -23.20839 -47.23344 21591 ft 374 kts 40°
2026-04-26 03:07 -23.18970 -47.21394 21191 ft 372 kts 40°
2026-04-26 03:07 -23.17108 -47.19455 20795 ft 369 kts 40°
2026-04-26 03:08 -23.15261 -47.17534 20404 ft 367 kts 40°
2026-04-26 03:08 -23.13434 -47.15585 20036 ft 365 kts 42°
2026-04-26 03:08 -23.11708 -47.13609 19668 ft 363 kts 44°
2026-04-26 03:08 -23.09988 -47.11560 19305 ft 361 kts 44°
2026-04-26 03:09 -23.08318 -47.09542 19062 ft 359 kts 44°
2026-04-26 03:09 -23.06645 -47.07525 19040 ft 359 kts 44°
2026-04-26 03:09 -23.04970 -47.05523 18890 ft 357 kts 44°
2026-04-26 03:09 -23.03292 -47.03536 18488 ft 356 kts 44°
2026-04-26 03:10 -23.01659 -47.01612 18095 ft 354 kts 44°
2026-04-26 03:10 -22.99954 -46.99607 17711 ft 351 kts 44°
2026-04-26 03:10 -22.98299 -46.97662 17337 ft 348 kts 44°
2026-04-26 03:10 -22.96664 -46.95743 16981 ft 345 kts 44°
2026-04-26 03:11 -22.95039 -46.93836 16628 ft 343 kts 44°
2026-04-26 03:11 -22.93455 -46.91981 16282 ft 340 kts 44°
2026-04-26 03:11 -22.91888 -46.90142 15952 ft 337 kts 45°
2026-04-26 03:11 -22.90337 -46.88303 15629 ft 335 kts 45°
2026-04-26 03:12 -22.88943 -46.86270 15278 ft 334 kts 66°
2026-04-26 03:12 -22.88518 -46.83814 14957 ft 331 kts 95°
2026-04-26 03:12 -22.89207 -46.81488 14622 ft 326 kts 125°
2026-04-26 03:12 -22.90818 -46.79827 14275 ft 319 kts 151°
2026-04-26 03:13 -22.92746 -46.78649 13910 ft 318 kts 151°
2026-04-26 03:13 -22.94602 -46.77380 13692 ft 311 kts 147°
2026-04-26 03:13 -22.96356 -46.76038 13436 ft 305 kts 145°
2026-04-26 03:13 -22.98036 -46.74653 13125 ft 303 kts 143°
2026-04-26 03:14 -22.99686 -46.73237 12791 ft 301 kts 143°
2026-04-26 03:14 -23.01313 -46.71820 12457 ft 298 kts 142°
2026-04-26 03:14 -23.02918 -46.70422 12120 ft 296 kts 143°
2026-04-26 03:14 -23.04527 -46.69027 11790 ft 294 kts 143°
2026-04-26 03:15 -23.06127 -46.67644 11458 ft 292 kts 143°
2026-04-26 03:15 -23.07739 -46.66257 11120 ft 290 kts 143°
2026-04-26 03:15 -23.09312 -46.64903 10792 ft 288 kts 143°
2026-04-26 03:15 -23.10884 -46.63549 10462 ft 286 kts 143°
2026-04-26 03:16 -23.11405 -46.63100 10385 ft 284 kts 143°
2026-04-26 03:16 -23.12715 -46.61970 10230 ft 277 kts 143°
2026-04-26 03:16 -23.14217 -46.60678 9976 ft 273 kts 143°
2026-04-26 03:16 -23.15611 -46.59481 9657 ft 271 kts 143°
2026-04-26 03:17 -23.17143 -46.58166 9291 ft 270 kts 143°
2026-04-26 03:17 -23.18623 -46.56969 8933 ft 267 kts 153°
2026-04-26 03:17 -23.20366 -46.56293 8583 ft 262 kts 174°
2026-04-26 03:17 -23.22167 -46.56349 8230 ft 258 kts 195°
2026-04-26 03:18 -23.23796 -46.57082 8055 ft 254 kts 214°
2026-04-26 03:18 -23.25285 -46.58153 8061 ft 258 kts 214°
2026-04-26 03:18 -23.26791 -46.59217 8067 ft 258 kts 214°
2026-04-26 03:18 -23.28298 -46.60280 8064 ft 258 kts 214°
2026-04-26 03:19 -23.29803 -46.61342 8028 ft 256 kts 214°
2026-04-26 03:19 -23.31265 -46.62377 7898 ft 246 kts 214°
2026-04-26 03:19 -23.32682 -46.63381 7728 ft 240 kts 214°
2026-04-26 03:19 -23.34076 -46.64370 7451 ft 238 kts 214°
2026-04-26 03:20 -23.35456 -46.65349 7161 ft 237 kts 214°
2026-04-26 03:20 -23.36834 -46.66325 6867 ft 236 kts 214°
2026-04-26 03:20 -23.38212 -46.67302 6589 ft 235 kts 215°
2026-04-26 03:20 -23.39580 -46.68273 6267 ft 234 kts 215°
2026-04-26 03:21 -23.40988 -46.69112 6047 ft 229 kts 198°
2026-04-26 03:21 -23.42541 -46.69183 5963 ft 224 kts 169°
2026-04-26 03:21 -23.43903 -46.68427 5747 ft 222 kts 139°
2026-04-26 03:21 -23.44846 -46.67095 5421 ft 222 kts 125°
2026-04-26 03:22 -23.45730 -46.65676 5105 ft 222 kts 126°
2026-04-26 03:22 -23.46587 -46.64306 4817 ft 221 kts 124°
2026-04-26 03:22 -23.47100 -46.62714 4532 ft 217 kts 93°
2026-04-26 03:22 -23.46916 -46.61184 4508 ft 195 kts 73°
2026-04-26 03:23 -23.46541 -46.59835 4484 ft 181 kts 72°
2026-04-26 03:23 -23.46198 -46.58600 4378 ft 168 kts 72°
2026-04-26 03:23 -23.45861 -46.57359 4141 ft 163 kts 72°
2026-04-26 03:23 -23.45546 -46.56196 3948 ft 159 kts 72°
2026-04-26 03:24 -23.45238 -46.55053 3756 ft 157 kts 72°
2026-04-26 03:24 -23.44930 -46.53904 3559 ft 155 kts 73°
2026-04-26 03:24 -23.44643 -46.52795 3358 ft 153 kts 72°
2026-04-26 03:24 -23.44337 -46.51668 3125 ft 151 kts 73°
2026-04-26 03:25 -23.44044 -46.50574 2950 ft 149 kts 73°
2026-04-26 03:25 -23.43756 -46.49508 2771 ft 148 kts 73°
2026-04-26 03:25 -23.43456 -46.48414 2525 ft 147 kts 73°
2026-04-26 03:25 -23.43179 -46.47411 2464 ft 109 kts 73°
2026-04-26 03:26 -23.43058 -46.46965 2463 ft 74 kts 73°
2026-04-26 03:26 -23.42999 -46.46778 2467 ft 4 kts 46°
2026-04-26 03:26 -23.42957 -46.46765 2462 ft 17 kts 358°
2026-04-26 03:26 -23.42901 -46.46779 2463 ft 0 kts 344°
2026-04-26 03:28 -23.42883 -46.46784 2466 ft 8 kts 345°
2026-04-26 03:29 -23.42833 -46.46803 2464 ft 6 kts 341°
2026-04-26 03:29 -23.42784 -46.46832 2463 ft 9 kts 300°
2026-04-26 03:29 -23.42788 -46.46929 2463 ft 18 kts 244°
2026-04-26 03:29 -23.42826 -46.47062 2464 ft 22 kts 258°
2026-04-26 03:30 -23.42858 -46.47180 2464 ft 14 kts 252°
2026-04-26 03:30 -23.42891 -46.47301 2461 ft 16 kts 252°
2026-04-26 03:30 -23.42922 -46.47416 2466 ft 14 kts 254°
2026-04-26 03:30 -23.42947 -46.47509 2461 ft 11 kts 253°
2026-04-26 03:31 -23.42969 -46.47584 2464 ft 11 kts 252°
2026-04-26 03:31 -23.42986 -46.47645 2464 ft 2 kts 254°
2026-04-26 03:31 -23.42996 -46.47684 2461 ft 7 kts 255°
2026-04-26 03:31 -23.43005 -46.47719 2463 ft 0 kts 254°
2026-04-26 03:33 -23.43005 -46.47720 2463 ft 2 kts 254°
2026-04-26 03:33 -23.43015 -46.47763 2462 ft 10 kts 257°
2026-04-26 03:34 -23.42998 -46.47811 2466 ft 10 kts 324°
2026-04-26 03:34 -23.42930 -46.47831 2464 ft 11 kts 345°
2026-04-26 03:34 -23.42868 -46.47854 2461 ft 6 kts 333°
2026-04-26 03:34 -23.42843 -46.47868 2461 ft 3 kts 334°
2026-04-26 03:35 -23.42830 -46.47893 2461 ft 5 kts 279°
2026-04-26 03:35 -23.42831 -46.47917 2461 ft 1 kts 261°
2026-04-26 03:35 -23.42833 -46.47930 2461 ft 1 kts 264°
2026-04-26 03:35 -23.42834 -46.47941 2461 ft 1 kts 265°
2026-04-26 03:36 -23.42834 -46.47942 2461 ft 0 kts 265°